Regional Weather Roundup
Issued by NWS Goodland, KS

Home | Current Version | Previous Version | Text Only | Print | Product List | Glossary On
Versions: 1 2 3 4 5 6 7 8 9 10 11 12 13 14 15 16 17 18 19 20 21 22 23 24 25 26 27 28 29 30 31 32 33 34 35 36 37 38 39 40 41 42 43 44 45 46 47 48 49 50
000
ASUS43 KGLD 030108
RWRGLD

GOODLAND FORECAST AREA HOURLY WEATHER ROUNDUP
NATIONAL WEATHER SERVICE GOODLAND KS
600 PM MST MON MAR 02 2015

...OFFICIAL OBSERVATIONS...

CITY           SKY/WX    TMP DP  RH WIND       PRES   REMARKS
GOODLAND KS    CLOUDY    30  29  96 S23       29.74F FOG     WCI  17
HILL CITY KS   CLOUDY    32  21  64 S14G21    29.92F
IMPERIAL NEB     N/A     30  25  81 S15       29.77F WCI  19
MCCOOK NEB     CLOUDY    33  23  66 S14       29.85F
AKRON CO       CLOUDY    32  28  85 SE16      29.61F
BURLINGTON CO  CLOUDY    33  29  85 S22G35    29.70F
LIMON CO       MOCLDY    31  25  78 SE15      29.67F
$$

...UNOFFICIAL OBSERVATIONS...

CITY           SKY/WX    TMP DP  RH WIND       PRES   REMARKS
COLBY KS       CLOUDY    32  32 100 SE16      29.80F FOG
GOVE KS          N/A     32  32 100 MISG        N/A
LENORA KS        N/A     30  32 100 S20         N/A  WCI  17
NORTON KS      CLOUDY    32  19  59 SE14G22   29.87F
SHARON SPRINGS   N/A     32  30  92 S21G28      N/A  WCI  20
KIT CARSON CO    N/A     33  30  89 MISG        N/A
YUMA CO          N/A     32  26  79 N10         N/A
$$


USA.gov is the U.S. government's official web portal to all federal, state and local government web resources and services.